Pamplona, Spain

3:23 AM CEST on April 25, 2017 (GMT +0200)
Pamplona

Weather History for LEPP - October, 2012

Change the Weather History Date:

Tuesday, October 9, 2012

  Actual Average Record
Temperature  
Mean Temperature 68 °F -  
Max Temperature 80 °F 60 °F 82 °F (1997)
Min Temperature 55 °F 46 °F 40 °F (2015)
Cooling Degree Days 2    
Growing Degree Days 18 (Base 50)    
Moisture  
Dew Point 57 °F    
Average Humidity 67    
Maximum Humidity 100    
Minimum Humidity 39    
Precipitation  
Precipitation 0.00 in - - ()
Sea Level Pressure  
Sea Level Pressure 30.07 in    
Wind  
Wind Speed 1 mph ()    
Max Wind Speed 6 mph    
Max Gust Speed -    
Visibility 6.2 miles    
Events      
Averages and records for this station are not official NWS values.
T = Trace of Precipitation, MM = Missing Value Source: Averaged Metar Reports

Daily Weather History Graph

Daily Weather History Graph

Search for Another Location

Airport or City:

Trip Planner

Search our weather history database for the weather conditions in past years. The results will help you decide how hot, cold, wet, or windy it might be!

Date:

Astronomy

Oct. 09, 2012 Rise Set
Actual Time 8:13 AM CEST 7:33 PM CEST
Civil Twilight 7:44 AM CEST 8:01 PM CEST
Nautical Twilight 7:12 AM CEST 8:34 PM CEST
Astronomical Twilight 6:39 AM CEST 9:07 PM CEST
Moon 1:27 AM CEST (10/9) 3:59 PM CEST (10/9)
Length of Visible Light 12h 17m
Length of Day
11h 20m
Last Quarter, 39% of the Moon is Illuminated
Oct 9
Last Quarter
Oct 15
New
Oct 22
First Quarter
Oct 29
Full
Nov 7
Last Quarter

Hourly Weather History & Observations

Time (CEST) Temp. Heat Index Dew Point Humidity Pressure Visibility Wind Dir Wind Speed Gust Speed Precip Events Conditions
12:00 AM 64.4 °F - 59.0 °F 83% 30.15 in - Calm Calm - N/A   Clear
5:30 AM 57.2 °F - 55.4 °F 94% 30.12 in 6.2 mi Calm Calm - N/A   Scattered Clouds
6:00 AM 57.2 °F - 55.4 °F 94% 30.12 in 6.2 mi Calm Calm - N/A   Scattered Clouds
6:30 AM 57.2 °F - 55.4 °F 94% 30.12 in 6.2 mi ENE 2.3 mph - N/A   Scattered Clouds
7:00 AM 57.2 °F - 55.4 °F 94% 30.09 in 6.2 mi ENE 1.2 mph - N/A   Scattered Clouds
7:30 AM 57.2 °F - 55.4 °F 94% 30.09 in 6.2 mi Calm Calm - N/A   Scattered Clouds
8:00 AM 55.4 °F - 55.4 °F 100% 30.09 in - Calm Calm - N/A   Clear
8:30 AM 55.4 °F - 55.4 °F 100% 30.12 in - Calm Calm - N/A   Clear
9:00 AM 59.0 °F - 57.2 °F 94% 30.12 in - ENE 1.2 mph - N/A   Clear
9:30 AM 60.8 °F - 57.2 °F 88% 30.12 in - Calm Calm - N/A   Clear
10:00 AM 62.6 °F - 57.2 °F 82% 30.12 in - Calm Calm - N/A   Clear
10:30 AM 64.4 °F - 59.0 °F 83% 30.12 in - Calm Calm - N/A   Clear
11:00 AM 66.2 °F - 59.0 °F 78% 30.12 in - NW 1.2 mph - N/A   Clear
11:30 AM 69.8 °F - 59.0 °F 68% 30.12 in - Calm Calm - N/A   Clear
12:00 PM 69.8 °F - 59.0 °F 68% 30.12 in - WNW 1.2 mph - N/A   Clear
1:00 PM 73.4 °F - 59.0 °F 61% 30.09 in - SSE 1.2 mph - N/A   Clear
1:30 PM 75.2 °F - 57.2 °F 53% 30.09 in 6.2 mi NE 1.2 mph - N/A   Partly Cloudy
2:00 PM 78.8 °F - 55.4 °F 44% 30.06 in 6.2 mi WNW 1.2 mph - N/A   Partly Cloudy
2:30 PM 77.0 °F - 55.4 °F 47% 30.06 in 6.2 mi NNE 2.3 mph - N/A   Partly Cloudy
3:00 PM 78.8 °F - 55.4 °F 44% 30.04 in 6.2 mi North 4.6 mph - N/A   Partly Cloudy
3:30 PM 78.8 °F - 55.4 °F 44% 30.04 in 6.2 mi West 1.2 mph - N/A   Partly Cloudy
4:00 PM 78.8 °F - 55.4 °F 44% 30.04 in 6.2 mi East 4.6 mph - N/A   Partly Cloudy
4:30 PM 78.8 °F - 55.4 °F 44% 30.01 in 6.2 mi NNE 2.3 mph - N/A   Partly Cloudy
5:00 PM 80.6 °F 80.3 °F 53.6 °F 39% 30.01 in 6.2 mi ESE 1.2 mph - N/A   Partly Cloudy
5:30 PM 80.6 °F 80.3 °F 53.6 °F 39% 30.01 in 6.2 mi Variable 2.3 mph - N/A   Partly Cloudy
6:00 PM 80.6 °F 80.5 °F 55.4 °F 42% 30.01 in 6.2 mi NNW 4.6 mph - N/A   Partly Cloudy
6:30 PM 80.6 °F 80.5 °F 55.4 °F 42% 30.01 in 6.2 mi Variable 1.2 mph - N/A   Scattered Clouds
7:00 PM 77.0 °F - 57.2 °F 50% 30.01 in 6.2 mi NNE 5.8 mph - N/A   Scattered Clouds
7:30 PM 75.2 °F - 57.2 °F 53% 30.01 in 6.2 mi NNE 3.5 mph - N/A   Scattered Clouds
8:00 PM 73.4 °F - 59.0 °F 61% 30.01 in - NE 3.5 mph - N/A   Clear
8:30 PM 71.6 °F - 59.0 °F 64% 30.01 in - Calm Calm - N/A   Clear
9:00 PM 71.6 °F - 59.0 °F 64% 30.01 in - Variable 1.2 mph - N/A   Clear
9:30 PM 71.6 °F - 59.0 °F 64% 30.01 in - East 1.2 mph - N/A   Clear
10:00 PM 69.8 °F - 59.0 °F 68% 30.04 in - Variable 1.2 mph - N/A   Clear
10:30 PM 69.8 °F - 59.0 °F 68% 30.04 in - Variable 1.2 mph - N/A   Clear
11:00 PM 69.8 °F - 59.0 °F 68% 30.04 in - Calm Calm - N/A   Clear
11:30 PM 68.0 °F - 59.0 °F 73% 30.04 in - NNE 2.3 mph - N/A   Clear